Find Starlink 1182

NORAD ID: 45077 Int'l Des: 2020-006 Owner: SPXS Country: US Constellation: starlink decayed
LEOCIRCULAR
Vis

Historical Track — Apr 8, 2022

Loading 3D Globe...

About Starlink 1182

Description loading...

Altitude History

Loading altitude history...

Two-Line Element Set

1 45077U 20006AK 22098.53684403 .13167780 12070-4 32651-2 0 9991
2 45077 53.0359 120.5323 0003763 294.8740 65.1910 16.28392410122631
Epoch: Apr 8, 2022 • Age: 35260 hours

Current Status

Position data unavailable
Launch Date Jan 29, 2020
Age 6.2 years
Decay Date Apr 8, 2022
Type internet

Technical Details

Classification Payload
Mass 260.00 kg
Dry Mass 248.00 kg
Total Mass 260.00 kg
Length 0.20 m
Diameter 2.80 m
Span 9.00 m
Shape Box + pan
Manufacturer SPXS
Bus Type Starlink
Phase Status Unknown Transfer Status
Owner/State SPXS/US

Most Searched